H1 CPF 2 NER 2024 10 4 9 278 01 glonass131 H2 1301901 9131 39155 2024 10 4 0 0 0 2024 10 7 23 45 0 900 1 1 0 0 0 1 H9 10 0 60587 0.00000 0 11230236.097 9721844.497 -20720493.611 10 0 60587 900.00000 0 11769336.974 12127971.372 -19098020.486 10 0 60587 1800.00000 0 12429038.770 14271461.782 -17104343.821 10 0 60587 2700.00000 0 13162054.195 16107299.623 -14778480.515 10 0 60587 3600.00000 0 13914834.865 17601815.976 -12165830.166 10 0 60587 4500.00000 0 14629947.895 18733845.542 -9317276.853 10 0 60587 5400.00000 0 15248625.277 19495367.582 -6288190.503 10 0 60587 6300.00000 0 15713378.338 19891608.024 -3137347.922 10 0 60587 7200.00000 0 15970567.483 19940601.769 74205.228 10 0 60587 8100.00000 0 15972819.933 19672236.529 3284329.588 10 0 60587 9000.00000 0 15681195.058 19126820.605 6430982.215 10 0 60587 9900.00000 0 15067007.755 18353236.253 9453399.565 10 0 60587 10800.00000 0 14113234.761 17406756.812 12293251.830 10 0 60587 11700.00000 0 12815446.084 16346618.972 14895748.025 10 0 60587 12600.00000 0 11182223.186 15233451.070 17210672.325 10 0 60587 13500.00000 0 9235046.424 14126663.655 19193333.627 10 0 60587 14400.00000 0 7007655.589 13081909.704 20805411.942 10 0 60587 15300.00000 0 4544908.612 12148718.842 22015686.953 10 0 60587 16200.00000 0 1901183.540 11368402.709 22800636.031 10 0 60587 17100.00000 0 -861612.746 10772317.714 23144890.973 10 0 60587 18000.00000 0 -3676349.689 10380557.088 23041544.828 10 0 60587 18900.00000 0 -6473199.806 10201126.979 22492302.435 10 0 60587 19800.00000 0 -9182285.419 10229641.890 21507470.574 10 0 60587 20700.00000 0 -11736338.159 10449553.775 20105786.162 10 0 60587 21600.00000 0 -14073262.785 10832907.328 18314083.562 10 0 60587 22500.00000 0 -16138499.837 11341592.196 16166804.853 10 0 60587 23400.00000 0 -17887088.877 11929041.943 13705359.946 10 0 60587 24300.00000 0 -19285345.568 12542310.391 10977346.439 10 0 60587 25200.00000 0 -20312081.127 13124439.359 8035642.251 10 0 60587 26100.00000 0 -20959311.149 13617018.537 4937387.199 10 0 60587 27000.00000 0 -21232422.082 13962829.050 1742872.520 10 0 60587 27900.00000 0 -21149786.436 14108457.583 -1485640.012 10 0 60587 28800.00000 0 -20741841.545 14006768.261 -4685145.502 10 0 60587 29700.00000 0 -20049669.962 13619124.757 -7793144.431 10 0 60587 30600.00000 0 -19123141.506 12917265.285 -10748885.811 10 0 60587 31500.00000 0 -18018696.367 11884747.830 -13494578.283 10 0 60587 32400.00000 0 -16796864.587 10517901.426 -15976543.021 10 0 60587 33300.00000 0 -15519628.920 8826240.794 -18146283.604 10 0 60587 34200.00000 0 -14247744.932 6832325.035 -19961449.890 10 0 60587 35100.00000 0 -13038133.864 4571065.409 -21386675.629 10 0 60587 36000.00000 0 -11941460.331 2088511.084 -22394272.568 10 0 60587 36900.00000 0 -10999998.398 -559835.568 -22964767.260 10 0 60587 37800.00000 0 -10245876.584 -3311102.538 -23087270.493 10 0 60587 38700.00000 0 -9699775.412 -6097442.121 -22759673.099 10 0 60587 39600.00000 0 -9370131.182 -8848633.912 -21988665.688 10 0 60587 40500.00000 0 -9252877.552 -11494787.192 -20789583.637 10 0 60587 41400.00000 0 -9331733.261 -13969029.501 -19186082.211 10 0 60587 42300.00000 0 -9579021.055 -16210069.414 -17209650.073 10 0 60587 43200.00000 0 -9956980.397 -18164527.572 -14898972.484 10 0 60587 44100.00000 0 -10419515.963 -19788940.433 -12299158.248 10 0 60587 45000.00000 0 -10914305.969 -21051355.412 -9460846.860 10 0 60587 45900.00000 0 -11385179.789 -21932453.674 -6439214.300 10 0 60587 46800.00000 0 -11774663.676 -22426156.811 -3292897.487 10 0 60587 47700.00000 0 -12026587.038 -22539695.201 -82858.623 10 0 60587 48600.00000 0 -12088639.877 -22293138.220 3128788.679 10 0 60587 49500.00000 0 -11914774.621 -21718408.474 6279969.296 10 0 60587 50400.00000 0 -11467352.602 -20857823.239 9309830.405 10 0 60587 51300.00000 0 -10718946.325 -19762225.275 12159897.693 10 0 60587 52200.00000 0 -9653723.140 -18488781.519 14775183.250 10 0 60587 53100.00000 0 -8268353.182 -17098541.223 17105225.643 10 0 60587 54000.00000 0 -6572403.860 -15653854.395 19105044.042 10 0 60587 54900.00000 0 -4588203.924 -14215756.678 20735989.945 10 0 60587 55800.00000 0 -2350181.528 -12841427.862 21966481.762 10 0 60587 56700.00000 0 96298.228 -11581828.088 22772609.427 10 0 60587 57600.00000 0 2696550.712 -10479608.586 23138598.255 10 0 60587 58500.00000 0 5388580.113 -9567382.890 23057123.271 10 0 60587 59400.00000 0 8105398.840 -8866430.029 22529467.523 10 0 60587 60300.00000 0 10777565.111 -8385883.989 21565520.182 10 0 60587 61200.00000 0 13335836.338 -8122444.235 20183612.691 10 0 60587 62100.00000 0 15713830.512 -8060620.927 18410193.928 10 0 60587 63000.00000 0 17850586.465 -8173506.542 16279348.067 10 0 60587 63900.00000 0 19692916.934 -8424043.684 13832161.851 10 0 60587 64800.00000 0 21197455.960 -8766737.834 11115951.045 10 0 60587 65700.00000 0 22332313.831 -9149744.536 8183358.939 10 0 60587 66600.00000 0 23078268.441 -9517243.911 5091342.916 10 0 60587 67500.00000 0 23429440.872 -9812002.257 1900067.970 10 0 60587 68400.00000 0 23393424.624 -9978011.518 -1328271.309 10 0 60587 69300.00000 0 22990861.095 -9963093.070 -4530676.489 10 0 60587 70200.00000 0 22254477.868 -9721352.980 -7644593.414 10 0 60587 71100.00000 0 21227629.793 -9215381.599 -10609156.289 10 0 60587 72000.00000 0 19962404.688 -8418101.031 -13366401.011 10 0 60587 72900.00000 0 18517374.745 -7314179.006 -15862421.584 10 0 60587 73800.00000 0 16955090.291 -5900946.521 -18048444.647 10 0 60587 74700.00000 0 15339423.869 -4188778.267 -19881799.076 10 0 60587 75600.00000 0 13732878.952 -2200918.336 -21326760.235 10 0 60587 76500.00000 0 12193978.833 27242.136 -22355251.443 10 0 60587 77400.00000 0 10774847.295 2449404.858 -22947388.717 10 0 60587 78300.00000 0 9519083.778 5010069.087 -23091858.520 10 0 60587 79200.00000 0 8460022.424 7646628.586 -22786122.087 10 0 60587 80100.00000 0 7619447.313 10291771.784 -22036443.691 10 0 60587 81000.00000 0 7006816.102 12876083.652 -20857744.024 10 0 60587 81900.00000 0 6619022.192 15330739.813 -19273283.367 10 0 60587 82800.00000 0 6440702.440 17590180.092 -17314182.699 10 0 60587 83700.00000 0 6445074.206 19594650.291 -15018793.862 10 0 60587 84600.00000 0 6595263.337 21292507.200 -12431932.740 10 0 60587 85500.00000 0 6846064.272 22642192.323 -9603991.795 10 0 60588 0.00000 0 7146055.750 23613794.184 -6589950.601 10 0 60588 900.00000 0 7439981.471 24190137.104 -3448302.672 10 0 60588 1800.00000 0 7671294.013 24367352.669 -239923.868 10 0 60588 2700.00000 0 7784755.241 24154914.582 2973101.168 10 0 60588 3600.00000 0 7728983.697 23575136.644 6128668.338 10 0 60588 4500.00000 0 7458842.926 22662157.507 9165838.660 10 0 60588 5400.00000 0 6937571.494 21460455.930 12025996.239 10 0 60588 6300.00000 0 6138566.520 20022959.147 14653958.947 10 0 60588 7200.00000 0 5046746.977 18408823.181 16999022.172 10 0 60588 8100.00000 0 3659440.212 16680976.745 19015917.491 10 0 60588 9000.00000 0 1986754.558 14903529.599 20665669.715 10 0 60588 9900.00000 0 51421.622 13139151.397 21916337.459 10 0 60588 10800.00000 0 -2111886.859 11446528.048 22743624.345 10 0 60588 11700.00000 0 -4457741.595 9877999.426 23131349.915 10 0 60588 12600.00000 0 -6931591.592 8477475.103 23071771.433 10 0 60588 13500.00000 0 -9471788.697 7278713.700 22565749.924 10 0 60588 14400.00000 0 -12011920.269 6304037.090 21622756.167 10 0 60588 15300.00000 0 -14483356.270 5563533.350 20260714.804 10 0 60588 16200.00000 0 -16817907.698 5054782.680 18505687.345 10 0 60588 17100.00000 0 -18950487.719 4763119.282 16391397.647 10 0 60588 18000.00000 0 -20821665.672 4662420.054 13958606.437 10 0 60588 18900.00000 0 -22380007.411 4716388.909 11254344.450 10 0 60588 19800.00000 0 -23584103.283 4880284.341 8331016.927 10 0 60588 20700.00000 0 -24404197.060 5103018.591 5245395.296 10 0 60588 21600.00000 0 -24823345.278 5329540.177 2057514.800 10 0 60588 22500.00000 0 -24838055.748 5503398.612 -1170500.552 10 0 60588 23400.00000 0 -24458376.036 5569381.315 -4375662.020 10 0 60588 24300.00000 0 -23707426.216 5476108.839 -7495363.817 10 0 60588 25200.00000 0 -22620394.337 5178475.555 -10468628.102 10 0 60588 26100.00000 0 -21243036.566 4639829.147 -13237320.502 10 0 60588 27000.00000 0 -19629745.709 3833793.308 -15747309.982 10 0 60588 27900.00000 0 -17841270.821 2745653.415 -17949547.983 10 0 60588 28800.00000 0 -15942185.840 1373244.073 -19801043.704 10 0 60588 29700.00000 0 -13998216.032 -272700.830 -21265714.919 10 0 60588 30600.00000 0 -12073536.877 -2168751.375 -22315096.803 10 0 60588 31500.00000 0 -10228160.828 -4279529.881 -22928894.607 10 0 60588 32400.00000 0 -8515522.916 -6558972.340 -23095369.747 10 0 60588 33300.00000 0 -6980366.998 -8952049.121 -22811552.698 10 0 60588 34200.00000 0 -5657020.820 -11396871.596 -22083279.855 10 0 60588 35100.00000 0 -4568130.824 -13827095.178 -20925055.358 10 0 60588 36000.00000 0 -3723907.448 -16174517.178 -19359742.409 10 0 60588 36900.00000 0 -3121909.669 -18371760.144 -17418092.020 10 0 60588 37800.00000 0 -2747374.407 -20354928.418 -15138120.240 10 0 60588 38700.00000 0 -2574073.464 -22066127.411 -12564347.624 10 0 60588 39600.00000 0 -2565658.556 -23455741.493 -9746917.231 10 0 60588 40500.00000 0 -2677434.911 -24484377.068 -6740609.388 10 0 60588 41400.00000 0 -2858486.400 -25124391.906 -3603773.127 10 0 60588 42300.00000 0 -3054061.078 -25360949.318 -397195.402 10 0 60588 43200.00000 0 -3208115.875 -25192555.744 2817070.032 10 0 60588 44100.00000 0 -3265913.179 -24631061.787 5976891.928 10 0 60588 45000.00000 0 -3176560.609 -23701128.716 9021246.894 10 0 60588 45900.00000 0 -2895388.161 -22439184.298 11891379.158 10 0 60588 46800.00000 0 -2386064.084 -20891912.332 14531914.013 10 0 60588 47700.00000 0 -1622361.864 -19114338.986 16891905.240 10 0 60588 48600.00000 0 -589505.165 -17167594.943 18925798.294 10 0 60588 49500.00000 0 714965.264 -15116445.149 20594292.616 10 0 60588 50400.00000 0 2280839.268 -13026687.033 21865088.156 10 0 60588 51300.00000 0 4085415.456 -10962523.152 22713503.127 10 0 60588 52200.00000 0 6094204.431 -8984015.163 23122951.966 10 0 60588 53100.00000 0 8262130.472 -7144722.881 23085274.568 10 0 60588 54000.00000 0 10535184.894 -5489624.873 22600910.069 10 0 60588 54900.00000 0 12852465.800 -4053406.050 21678910.732 10 0 60588 55800.00000 0 15148522.779 -2859183.228 20336794.006 10 0 60588 56700.00000 0 17355912.023 -1917722.158 18600233.371 10 0 60588 57600.00000 0 19407857.876 -1227179.785 16502591.437 10 0 60588 58500.00000 0 21240911.280 -773384.001 14084301.681 10 0 60588 59400.00000 0 22797494.661 -530640.901 11392108.259 10 0 60588 60300.00000 0 24028226.257 -463037.287 8478176.472 10 0 60588 61200.00000 0 24893925.036 -526184.900 5399089.563 10 0 60588 62100.00000 0 25367209.908 -669333.520 2214750.476 10 0 60588 63000.00000 0 25433623.390 -837763.568 -1012790.178 10 0 60588 63900.00000 0 25092229.749 -975356.030 -4220556.339 10 0 60588 64800.00000 0 24355659.961 -1027229.065 -7345893.659 10 0 60588 65700.00000 0 23249599.691 -942327.023 -10327715.263 10 0 60588 66600.00000 0 21811740.767 -675849.139 -13107719.378 10 0 60588 67500.00000 0 20090240.069 -191411.735 -15631552.571 10 0 60588 68400.00000 0 18141751.406 537150.773 -17849893.453 10 0 60588 69300.00000 0 16029114.598 1524425.039 -19719433.613 10 0 60588 70200.00000 0 13818800.844 2772557.806 -21203735.011 10 0 60588 71100.00000 0 11578223.786 4270932.509 -22273946.156 10 0 60588 72000.00000 0 9373031.123 5996397.732 -22909362.695 10 0 60588 72900.00000 0 7264491.863 7914037.714 -23097821.840 10 0 60588 73800.00000 0 5307089.528 9978451.793 -22835923.781 10 0 60588 74700.00000 0 3546422.085 12135487.832 -22129077.124 10 0 60588 75600.00000 0 2017495.492 14324355.561 -20991369.141 10 0 60588 76500.00000 0 743480.411 16480029.965 -19445265.198 10 0 60588 77400.00000 0 -265018.582 18535842.966 -17521145.175 10 0 60588 78300.00000 0 -1010154.001 20426154.341 -15256687.738 10 0 60588 79200.00000 0 -1506482.285 22088990.063 -12696116.141 10 0 60588 80100.00000 0 -1780085.000 23468538.286 -9889321.706 10 0 60588 81000.00000 0 -1867204.743 24517399.742 -6890883.152 10 0 60588 81900.00000 0 -1812456.056 25198500.189 -3759001.580 10 0 60588 82800.00000 0 -1666688.871 25486586.999 -554372.221 10 0 60588 83700.00000 0 -1484595.847 25369249.645 2660985.257 10 0 60588 84600.00000 0 -1322164.974 24847423.708 5824915.678 10 0 60588 85500.00000 0 -1234084.510 23935359.391 8876314.404 10 0 60589 0.00000 0 -1271208.680 22660057.571 11756288.577 10 0 60589 900.00000 0 -1478189.563 21060197.159 14409274.282 10 0 60589 1800.00000 0 -1891373.266 19184600.480 16784086.053 10 0 60589 2700.00000 0 -2537047.520 17090297.803 18834885.580 10 0 60589 3600.00000 0 -3430113.320 14840271.896 20522049.012 10 0 60589 4500.00000 0 -4573236.022 12500973.890 21812919.392 10 0 60589 5400.00000 0 -5956511.951 10139711.442 22682430.934 10 0 60589 6300.00000 0 -7557665.866 7822015.136 23113593.977 10 0 60589 7200.00000 0 -9342773.238 5609090.057 23097831.622 10 0 60589 8100.00000 0 -11267480.106 3555456.220 22635161.177 10 0 60589 9000.00000 0 -13278672.980 1706874.279 21734215.914 10 0 60589 9900.00000 0 -15316532.632 98641.895 20412105.020 10 0 60589 10800.00000 0 -17316889.434 -1245668.480 18694112.301 10 0 60589 11700.00000 0 -19213784.745 -2314977.235 16613236.897 10 0 60589 12600.00000 0 -20942133.358 -3110937.381 14209582.292 10 0 60589 13500.00000 0 -22440376.691 -3647634.965 11529602.889 10 0 60589 14400.00000 0 -23653015.597 -3950761.032 8625220.543 10 0 60589 15300.00000 0 -24532915.466 -4056288.493 5552826.608 10 0 60589 16200.00000 0 -25043284.857 -4008708.662 2372187.933 10 0 60589 17100.00000 0 -25159241.862 -3858901.581 -854722.038 10 0 60589 18000.00000 0 -24868899.346 -3661730.659 -4064943.589 10 0 60589 18900.00000 0 -24173920.476 -3473464.811 -7195777.285 10 0 60589 19800.00000 0 -23089518.653 -3349139.431 -10186030.457 10 0 60589 20700.00000 0 -21643900.023 -3339970.769 -12977236.876 10 0 60589 21600.00000 0 -19877171.094 -3490936.371 -15514823.292 10 0 60589 22500.00000 0 -17839757.375 -3838627.194 -17749197.642 10 0 60589 23400.00000 0 -15590400.371 -4409465.223 -19636735.546 10 0 60589 24300.00000 0 -13193818.562 -5218364.317 -21140644.215 10 0 60589 25200.00000 0 -10718132.385 -6267892.541 -22231685.909 10 0 60589 26100.00000 0 -8232163.149 -7547972.204 -22888746.451 10 0 60589 27000.00000 0 -5802720.710 -9036130.317 -23099237.986 10 0 60589 27900.00000 0 -3491994.552 -10698288.322 -22859328.994 10 0 60589 28800.00000 0 -1355157.800 -12490056.718 -22173998.376 10 0 60589 29700.00000 0 561716.177 -14358478.720 -21056914.225 10 0 60589 30600.00000 0 2223338.974 -16244148.230 -19530141.478 10 0 60589 31500.00000 0 3606425.989 -18083611.829 -17623686.089 10 0 60589 32400.00000 0 4700400.988 -19811953.048 -15374886.437 10 0 60589 33300.00000 0 5507560.473 -21365450.050 -12827665.534 10 0 60589 34200.00000 0 6042694.729 -22684195.359 -10031660.061 10 0 60589 35100.00000 0 6332185.173 -23714568.593 -7041244.309 10 0 60589 36000.00000 0 6412619.283 -24411459.801 -3914468.774 10 0 60589 36900.00000 0 6328984.101 -24740152.003 -711934.448 10 0 60589 37800.00000 0 6132516.301 -24677786.093 2504375.393 10 0 60589 38700.00000 0 5878300.471 -24214348.868 5672283.753 10 0 60589 39600.00000 0 5622717.018 -23353144.806 8730606.641 10 0 60589 40500.00000 0 5420846.642 -22110733.456 11620316.285 10 0 60589 41400.00000 0 5323939.544 -20516336.122 14285659.990 10 0 60589 42300.00000 0 5377054.396 -18610736.927 16675214.810 10 0 60589 43200.00000 0 5616964.758 -16444723.672 18742859.681 10 0 60589 44100.00000 0 6070419.567 -14077132.185 20448648.211 10 0 60589 45000.00000 0 6752829.812 -11572573.648 21759567.049 10 0 60589 45900.00000 0 7667436.291 -8998936.925 22650166.646 10 0 60589 46800.00000 0 8804993.973 -6424766.858 23103053.236 10 0 60589 47700.00000 0 10143987.726 -3916624.620 23109232.863 10 0 60589 48600.00000 0 11651372.711 -1536537.101 22668300.538 10 0 60589 49500.00000 0 13283811.499 660360.893 21788469.861 10 0 60589 50400.00000 0 14989359.499 2627895.110 20486440.906 10 0 60589 51300.00000 0 16709531.639 4330545.655 18787106.767 10 0 60589 52200.00000 0 18381666.907 5744695.499 16723101.924 10 0 60589 53100.00000 0 19941494.234 6859380.819 14334198.494 10 0 60589 54000.00000 0 21325793.740 7676510.473 11666559.551 10 0 60589 54900.00000 0 22475042.255 8210543.865 8771861.722 10 0 60589 55800.00000 0 23335931.382 8487639.131 5706302.452 10 0 60589 56700.00000 0 23863650.647 8544306.233 2529510.265 10 0 60589 57600.00000 0 24023837.193 8425621.058 -696620.989 10 0 60589 58500.00000 0 23794106.964 8183075.967 -3909150.489 10 0 60589 59400.00000 0 23165099.705 7872158.591 -7045336.321 10 0 60589 60300.00000 0 22140990.783 7549763.059 -10043882.592 10 0 60589 61200.00000 0 20739445.824 7271545.680 -12846161.063 10 0 60589 62100.00000 0 18991018.385 7089339.956 -15397380.935 10 0 60589 63000.00000 0 16938015.231 7048743.445 -17647681.512 10 0 60589 63900.00000 0 14632877.037 7186981.532 -19553124.254 10 0 60589 64800.00000 0 12136143.455 7531141.010 -21076563.205 10 0 60589 65700.00000 0 9514089.379 8096849.970 -22188375.746 10 0 60589 66600.00000 0 6836133.242 8887460.887 -22867039.017 10 0 60589 67500.00000 0 4172127.563 9893771.590 -23099540.998 10 0 60589 68400.00000 0 1589646.419 11094295.408 -22881619.067 10 0 60589 69300.00000 0 -848616.031 12456067.985 -22217822.691 10 0 60589 70200.00000 0 -3087227.329 13935955.220 -21121400.661 10 0 60589 71100.00000 0 -5080080.336 15482405.622 -19614016.939 10 0 60589 72000.00000 0 -6792054.289 17037571.662 -17725302.560 10 0 60589 72900.00000 0 -8200206.601 18539709.554 -15492254.212 10 0 60589 73800.00000 0 -9294448.834 19925755.676 -12958492.874 10 0 60589 74700.00000 0 -10077682.257 21133970.932 -10173398.454 10 0 60589 75600.00000 0 -10565391.101 22106542.248 -7191138.404 10 0 60589 76500.00000 0 -10784714.186 22792032.730 -4069609.988 10 0 60589 77400.00000 0 -10773037.080 23147578.979 -869317.176 10 0 60589 78300.00000 0 -10576166.439 23140745.029 2347796.045 10 0 60589 79200.00000 0 -10246165.001 22750957.071 5519533.799 10 0 60589 80100.00000 0 -9838939.103 21970460.674 8584635.676 10 0 60589 81000.00000 0 -9411680.197 20804762.015 11483941.636 10 0 60589 81900.00000 0 -9020267.185 19272535.807 14161513.513 10 0 60589 82800.00000 0 -8716737.491 17405004.251 16565693.277 10 0 60589 83700.00000 0 -8546931.533 15244812.669 18650079.589 10 0 60589 84600.00000 0 -8548407.878 12844447.578 20374405.784 10 0 60589 85500.00000 0 -8748715.235 10264261.293 21705304.115 10 0 60590 0.00000 0 -9164092.872 7570182.948 22616942.920 10 0 60590 900.00000 0 -9798654.112 4831206.704 23091525.834 10 0 60590 1800.00000 0 -10644087.266 2116762.020 23119642.684 10 0 60590 2700.00000 0 -11679888.876 -505932.638 22700466.650 10 0 60590 3600.00000 0 -12874121.404 -2974421.796 21841791.610 10 0 60590 4500.00000 0 -14184666.738 -5233368.115 20559907.917 10 0 60590 5400.00000 0 -15560926.184 -7236613.745 18879316.777 10 0 60590 6300.00000 0 -16945898.870 -8948862.555 16832286.247 10 0 60590 7200.00000 0 -18278554.064 -10346912.656 14458254.786 10 0 60590 8100.00000 0 -19496399.869 -11420386.729 11803091.367 10 0 60590 9000.00000 0 -20538141.361 -12171928.084 8918224.215 10 0 60590 9900.00000 0 -21346316.320 -12616852.544 5859653.403 10 0 60590 10800.00000 0 -21869796.452 -12782269.300 2686865.453 10 0 60590 11700.00000 0 -22066046.575 -12705706.611 -538329.145 10 0 60590 12600.00000 0 -21903043.719 -12433299.935 -3753012.250 10 0 60590 13500.00000 0 -21360771.936 -12017619.345 -6894403.195 10 0 60590 14400.00000 0 -20432226.542 -11515229.337 -9901106.453 10 0 60590 15300.00000 0 -19123882.466 -10984086.268 -12714335.168 10 0 60590 16200.00000 0 -17455604.678 -10480886.113 -15279084.089 10 0 60590 17100.00000 0 -15460002.925 -10058477.709 -17545226.604 10 0 60590 18000.00000 0 -13181257.352 -9763453.803 -19468512.252 10 0 60590 18900.00000 0 -10673464.614 -9634024.415 -21011443.554 10 0 60590 19800.00000 0 -7998574.826 -9698264.396 -22144014.005 10 0 60590 20700.00000 0 -5224007.296 -9972810.531 -22844292.342 10 0 60590 21600.00000 0 -2420046.416 -10462063.579 -23098841.957 10 0 60590 22500.00000 0 342871.942 -11157928.562 -22902968.047 10 0 60590 23400.00000 0 2996869.093 -12040103.121 -22260788.979 10 0 60590 24300.00000 0 5479213.818 -13076900.140 -21185132.100 10 0 60590 25200.00000 0 7734686.600 -14226568.039 -19697257.862 10 0 60590 26100.00000 0 9717620.385 -15439051.093 -17826419.570 10 0 60590 27000.00000 0 11393534.871 -16658113.821 -15609269.176 10 0 60590 27900.00000 0 12740298.895 -17823738.553 -13089122.430 10 0 60590 28800.00000 0 13748775.736 -18874694.311 -10315099.173 10 0 60590 29700.00000 0 14422928.003 -19751168.573 -7341156.687 10 0 60590 30600.00000 0 14779381.421 -20397351.534 -4225035.680 10 0 60590 31500.00000 0 14846469.192 -20763865.028 -1027139.878 10 0 60590 32400.00000 0 14662799.928 -20809935.391 2190629.080 10 0 60590 33300.00000 0 14275411.465 -20505220.632 5366059.253 10 0 60590 34200.00000 0 13737589.442 -19831216.905 8437816.336 10 0 60590 35100.00000 0 13106442.741 -18782186.952 11346610.170 10 0 60590 36000.00000 0 12440337.278 -17365572.776 14036318.889 10 0 60590 36900.00000 0 11796294.890 -15601875.975 16455050.731 10 0 60590 37800.00000 0 11227464.940 -13524010.639 18556125.026 10 0 60590 38700.00000 0 10780773.006 -11176154.943 20298955.386 10 0 60590 39600.00000 0 10494843.529 -8612147.606 21649819.838 10 0 60590 40500.00000 0 10398282.156 -5893493.593 22582504.541 10 0 60590 41400.00000 0 10508388.951 -3087058.974 23078809.704 10 0 60590 42300.00000 0 10830356.350 -262547.550 23128908.356 10 0 60590 43200.00000 0 11356986.297 2510139.305 22731550.818 10 0 60590 44100.00000 0 12068940.020 5163552.969 21894110.018 10 0 60590 45000.00000 0 12935512.359 7635250.454 20632465.195 10 0 60590 45900.00000 0 13915900.943 9870145.515 18970724.137 10 0 60590 46800.00000 0 14960919.965 11822561.084 16940786.821 10 0 60590 47700.00000 0 16015089.350 13457897.511 14581756.282 10 0 60590 48600.00000 0 17019013.767 14753846.220 11939205.508 10 0 60590 49500.00000 0 17911952.864 15701096.689 9064312.311 10 0 60590 50400.00000 0 18634474.899 16303505.369 6012877.244 10 0 60590 51300.00000 0 19131081.277 16577717.716 2844242.574 10 0 60590 52200.00000 0 19352689.603 16552257.759 -379866.923 10 0 60590 53100.00000 0 19258867.879 16266122.611 -3596558.185 10 0 60590 54000.00000 0 18819722.377 15766941.048 -6743014.158 10 0 60590 54900.00000 0 18017356.104 15108774.603 -9757741.969 10 0 60590 55800.00000 0 16846832.990 14349655.581 -12581798.264 10 0 60590 56700.00000 0 15316604.323 13548968.305 -15159965.268 10 0 60590 57600.00000 0 13448377.256 12764786.933 -17441852.161 10 0 60590 58500.00000 0 11276429.688 12051285.227 -19382898.041 10 0 60590 59400.00000 0 8846399.891 11456330.364 -20945255.194 10 0 60590 60300.00000 0 6213602.098 11019364.620 -22098534.315 10 0 60590 61200.00000 0 3440939.719 10769665.847 -22820396.651 10 0 60590 62100.00000 0 596504.961 10725060.794 -23096981.699 10 0 60590 63000.00000 0 -2249033.361 10891145.305 -22923162.915 10 0 60590 63900.00000 0 -5025143.388 11261043.210 -22302627.693 10 0 60590 64800.00000 0 -7664131.169 11815712.360 -21247781.686 10 0 60590 65700.00000 0 -10103716.251 12524782.733 -19779481.184 10 0 60590 66600.00000 0 -12289375.157 13347888.919 -17926600.678 10 0 60590 67500.00000 0 -14176356.552 14236438.547 -15725445.923 10 0 60590 68400.00000 0 -15731286.355 15135740.111 -13219025.637 10 0 60590 69300.00000 0 -16933298.655 15987399.010 -10456197.523 10 0 60590 70200.00000 0 -17774648.584 16731879.910 -7490706.424 10 0 60590 71100.00000 0 -18260785.063 17311127.223 -4380134.100 10 0 60590 72000.00000 0 -18409883.809 17671133.724 -1184781.541 10 0 60590 72900.00000 0 -18251863.280 17764350.092 2033494.501 10 0 60590 73800.00000 0 -17826927.356 17551835.370 5212468.597 10 0 60590 74700.00000 0 -17183697.622 17005059.490 8290735.133 10 0 60590 75600.00000 0 -16377014.553 16107283.732 11208876.432 10 0 60590 76500.00000 0 -15465499.876 14854462.496 13910589.488 10 0 60590 77400.00000 0 -14508981.669 13255629.450 16343751.307 10 0 60590 78300.00000 0 -13565888.747 11332752.082 18461404.273 10 0 60590 79200.00000 0 -12690721.799 9120060.090 20222644.493 10 0 60590 80100.00000 0 -11931705.285 6662874.233 21593397.760 10 0 60590 81000.00000 0 -11328716.636 4015982.193 22547069.716 10 0 60590 81900.00000 0 -10911578.067 1241626.152 23065058.701 10 0 60590 82800.00000 0 -10698781.751 -1592817.536 23137121.867 10 0 60590 83700.00000 0 -10696701.754 -4417373.638 22761587.290 10 0 60590 84600.00000 0 -10899326.573 -7162116.370 21945407.114 10 0 60590 85500.00000 0 -11288525.104 -9759823.611 20704049.153 99